CAPE
589 661 776 855 914 955 989 948 832 672 611 615 825 913 869 888 856 847 1079 1007 1118 1228 1204 1228 1259 1302 1349 1349 1305 1212 1089 918 811 943 922 1090 1499 1130 951 1277 1373 1176 1469 1751 1908 2014 2086 2108 2247 2350 2373 2585 2751 2823 3074 3180 3194 3138 3014 2962 2956 2947 2741
662 710 845 882 877 902 952 958 794 740 730 676 879 1048 995 1016 1007 946 1057 1098 1071 1193 1268 1278 1261 1233 1245 1237 1195 1127 1030 977 864 1003 1036 946 1270 1594 1186 1202 1567 1474 1450 1760 1925 2013 2090 2138 2202 2282 2282 2440 2672 2791 2946 3084 3131 3107 3063 2927 2782 2784 2658
658 722 854 930 926 897 926 941 860 842 939 808 957 1132 1140 1147 1208 1124 1149 1228 1148 1135 1268 1321 1346 1271 1217 1194 1142 1094 1023 1012 958 980 1125 1121 1081 1460 1619 1320 1441 1740 1638 1768 1991 2066 2117 2138 2134 2239 2246 2337 2521 2699 2882 2980 3069 3100 3116 3065 2764 2700 2621
697 717 816 960 963 937 920 918 918 904 1047 1064 1059 1212 1264 1294 1368 1338 1318 1369 1334 1238 1278 1338 1404 1344 1248 1174 1116 1060 1023 1052 1072 1056 1158 1229 1198 1223 1678 1687 1454 1526 1912 1843 2073 2162 2212 2143 2097 2152 2554 2293 2444 2532 2754 2896 2941 2991 3030 3053 2818 2722 2645
788 740 790 920 968 947 932 955 940 923 1025 1206 1193 1280 1395 1431 1524 1574 1533 1543 1500 1424 1366 1405 1435 1444 1330 1229 1160 1110 1086 1110 1170 1208 1257 1331 1353 1327 1515 1821 1752 1553 1683 2027 2071 2317 2375 2294 2184 2119 2301 2379 2436 2505 2605 2786 2853 2899 2949 2961 2818 2646 2600
843 846 798 904 964 938 1002 1037 1032 990 1000 1199 1341 1365 1479 1584 1696 1774 1759 1803 1715 1633 1543 1508 1498 1565 1470 1329 1236 1198 1217 1190 1214 1296 1374 1458 1494 1499 1500 1788 1963 1832 1634 1826 2194 2310 2511 2457 2352 2240 2211 2454 2525 2581 2595 2698 2758 2799 2867 2890 2796 2581 2623
850 890 872 930 983 995 1068 1127 1123 1079 1044 1125 1349 1472 1582 1764 1846 1928 1935 1956 1923 1857 1743 1669 1627 1613 1622 1515 1376 1308 1319 1350 1325 1342 1406 1497 1580 1610 1587 1676 2035 2072 1875 1723 2039 2318 2518 2625 2526 2438 2320 2382 2579 2660 2694 2705 2761 2730 2752 2782 2735 2540 2624
831 891 878 958 1050 1068 1096 1169 1210 1175 1134 1118 1235 1476 1613 1820 1954 2046 2075 2078 2083 2032 1938 1849 1767 1712 1715 1687 1565 1444 1408 1448 1470 1442 1428 1463 1547 1650 1670 1662 1862 2220 2154 1928 1883 2232 2401 2534 2677 2623 2525 2452 2495 2643 2734 2766 2787 2783 2702 2677 2615 2465 2462
828 910 908 976 1101 1136 1123 1168 1221 1251 1226 1197 1187 1378 1594 1788 2012 2141 2216 2222 2232 2194 2136 2018 1940 1840 1792 1796 1743 1623 1523 1501 1550 1545 1514 1494 1518 1596 1652 1672 1679 1985 2374 2282 2073 2130 2359 2429 2476 2614 2642 2580 2530 2556 2661 2762 2792 2822 2776 2664 2592 2525 2450
849 926 930 945 1088 1150 1158 1182 1179 1204 1242 1230 1214 1317 1534 1703 1961 2172 2306 2368 2381 2351 2303 2195 2108 2001 1893 1837 1834 1797 1700 1611 1582 1602 1593 1576 1572 1594 1637 1649 1622 1639 2066 2503 2449 2295 2332 2460 2487 2484 2547 2598 2602 2583 2599 2682 2775 2806 2819 2760 2648 2617 2583
804 879 928 906 970 1060 1126 1187 1238 1206 1183 1168 1212 1344 1473 1615 1831 2097 2311 2485 2574 2546 2473 2386 2285 2175 2067 1963 1861 1866 1843 1765 1672 1629 1615 1614 1619 1644 1661 1677 1653 1586 1622 2031 2537 2602 2469 2462 2555 2556 2520 2510 2540 2622 2636 2645 2722 2790 2806 2819 2752 2685 2671
757 835 894 878 897 945 1081 1177 1321 1347 1267 1203 1282 1445 1523 1570 1743 2022 2263 2488 2685 2758 2700 2591 2472 2376 2272 2171 2049 1913 1898 1893 1816 1719 1645 1612 1618 1652 1697 1722 1711 1653 1607 1624 1996 2540 2680 2565 2509 2597 2631 2577 2526 2535 2649 2702 2738 2798 2820 2841 2868 2816 2749
698 767 842 878 874 898 1008 1073 1218 1385 1381 1314 1336 1525 1685 1704 1778 1998 2204 2391 2637 2819 2863 2807 2691 2583 2478 2376 2247 2102 1974 1954 1926 1840 1750 1678 1640 1634 1687 1742 1765 1731 1663 1615 1644 1926 2475 2713 2598 2490 2601 2728 2709 2627 2583 2670 2774 2848 2883 2890 2925 2963 2927
866 700 757 849 835 859 970 1070 1128 1264 1370 1392 1404 1536 1862 1911 1930 2073 2218 2363 2546 2758 2922 2958 2892 2779 2665 2562 2452 2328 2162 2068 2007 1941 1861 1790 1724 1676 1682 1746 1794 1804 1749 1646 1604 1622 1831 2347 2671 2628 2455 2511 2692 2754 2664 2574 2615 2792 2932 2964 2962 2994 3041
702 678 745 817 845 862 981 1121 1178 1209 1292 1381 1405 1515 1939 2146 2147 2183 2287 2361 2511 2692 2864 3000 3033 2979 2873 2747 2646 2541 2403 2246 2180 2074 1979 1899 1831 1765 1712 1734 1808 1857 1862 1791 1664 1600 1633 1759 2204 2597 2640 2460 2339 2503 2662 2615 2527 2555 2779 2990 3028 3005 3030
718 694 727 795 850 865 925 1077 1184 1231 1303 1360 1390 1577 2119 2324 2352 2370 2430 2456 2565 2739 2913 3027 3077 3090 3039 2946 2835 2726 2613 2466 2351 2269 2151 2042 1964 1882 1805 1765 1796 1864 1909 1924 1864 1721 1650 1667 1792 2121 2456 2561 2456 2324 2404 2667 2754 2648 2586 2740 2963 3038 3036
712 760 746 758 778 755 789 926 1104 1242 1340 1507 1620 1770 2360 2604 2554 2519 2566 2605 2637 2788 3019 3131 3172 3152 3119 3049 2969 2879 2770 2642 2510 2414 2319 2213 2095 2011 1926 1834 1806 1842 1887 1926 1985 1947 1807 1762 1809 1954 2146 2358 2473 2409 2287 2274 2573 2888 2877 2728 2748 2883 3007
664 770 786 772 728 663 772 1021 1309 1418 1502 1696 1891 2053 2479 2847 2875 2774 2738 2748 2755 2793 3067 3294 3316 3308 3279 3222 3113 3001 2896 2797 2695 2577 2465 2343 2239 2111 2021 1933 1834 1803 1847 1871 1913 2029 2034 1955 1899 1958 2095 2227 2360 2462 2464 2374 2288 2426 2864 3033 2951 2870 2910
589 606 696 742 691 597 857 1173 1617 1972 2062 2089 2238 2412 2680 2979 3067 3029 2958 2924 2903 2888 3030 3367 3500 3493 3448 3398 3328 3240 3124 3036 2943 2854 2738 2580 2379 2246 2110 2016 1904 1810 1787 1841 1876 1951 2095 2129 2060 1990 2010 2158 2319 2425 2545 2602 2568 2450 2449 2783 3099 3166 3092
1135 811 807 608 665 768 961 1254 1596 2200 2686 2774 2785 2805 2966 3222 3276 3232 3150 3118 3105 3106 3070 3268 3540 3647 3642 3593 3524 3446 3377 3297 3241 3211 3152 3034 2828 2552 2263 2130 2016 1902 1821 1806 1824 1864 1974 2109 2142 2103 2023 2012 2144 2323 2415 2536 2676 2749 2687 2617 2773 3070 3254
2156 2063 2166 2387 2494 2306 2333 2618 2811 2852 3034 3206 3232 3200 3258 3470 3518 3479 3384 3341 3314 3260 3208 3131 3425 3666 3766 3755 3709 3656 3621 3578 3536 3507 3476 3403 3254 3014 2682 2253 2193 2081 1976 1909 1882 1868 1946 2104 2175 2155 2105 2037 2001 2078 2265 2394 2496 2715 2851 2865 2824 2862 3053
2934 3187 3340 3227 3231 3452 3568 3649 3679 3561 3502 3457 3471 3448 3453 3612 3701 3674 3610 3514 3464 3424 3353 3296 3275 3558 3799 3891 3887 3856 3812 3778 3745 3711 3673 3616 3518 3379 3161 2850 2434 2280 2187 2088 2023 1981 1953 2055 2236 2342 2318 2220 2077 2014 2128 2370 2503 2632 2816 2964 3014 3000 2995
3040 3383 3661 3726 3632 3671 3699 3769 3876 3866 3839 3753 3666 3573 3534 3657 3811 3851 3803 3715 3654 3605 3552 3498 3458 3408 3676 3884 3967 3980 3959 3923 3886 3849 3806 3770 3697 3586 3414 3231 3006 2664 2318 2275 2186 2120 2086 2082 2188 2410 2552 2560 2486 2352 2254 2322 2548 2771 2871 2991 3118 3173 3165
3867 3866 3586 3297 3102 3481 3633 3670 3758 3824 3995 4077 4282 4361 4167 3628 3796 3942 3962 3914 3856 3831 3829 3786 3741 3649 3605 3789 3966 4044 4048 4043 4005 3983 3940 3875 3818 3708 3607 3467 3279 3057 2795 2499 2347 2272 2206 2167 2164 2250 2458 2672 2761 2728 2634 2532 2492 2652 2986 3161 3231 3272 3274
3476 3470 3385 3294 3316 3475 3502 3552 3669 3870 4070 4137 4151 4220 4754 4520 3654 3668 3898 3996 4008 3976 3984 4016 3993 3946 3886 3825 3814 4008 4096 4140 4128 4077 4032 3973 3908 3818 3741 3612 3460 3275 3094 2910 2707 2512 2323 2292 2306 2325 2352 2453 2661 2892 2958 2920 2861 2786 2765 3122 3351 3445 3463
2705 3043 3282 3383 3466 3560 3568 3448 3426 3574 3886 4166 4253 4171 4155 4452 4470 4485 3541 3608 3894 3996 4016 4028 4033 4038 4018 3990 3972 3942 4056 4107 4141 4127 4075 4038 3973 3907 3825 3720 3587 3464 3283 3142 2975 2827 2665 2455 2387 2415 2460 2477 2509 2564 2782 3007 3120 3166 3156 3086 3311 3498 3579
2487 2594 3092 3256 3358 3508 3403 3346 3439 3636 3828 4186 4381 4108 4095 4041 3971 4390 4396 4323 4041 3653 3720 3872 3880 3906 3964 3994 4017 4038 4059 4080 4136 4163 4124 4091 4036 3962 3891 3809 3703 3586 3459 3337 3195 3074 2946 2810 2653 2521 2530 2590 2665 2691 2698 2838 3058 3241 3313 3336 3304 3475 3675
2348 2314 2419 2769 3046 2965 2996 3126 3060 3176 3444 3997 4341 4320 4090 4268 4286 3731 4000 4073 4051 3924 3926 3807 3577 3665 3756 3756 3954 4149 4150 4143 4171 4189 4181 4142 4108 4057 3976 3887 3794 3709 3612 3500 3387 3298 3186 3066 2928 2767 2662 2741 2851 2939 2974 3067 3230 3344 3462 3513 3521 3486 3542
2197 2161 2190 2213 2412 2688 3012 3194 3178 3044 3046 3162 4009 4480 4090 4197 4481 4521 4066 3922 4238 4499 4730 4607 4062 3714 3594 3692 3879 4205 4274 4297 4323 4317 4280 4253 4199 4158 4107 4031 3944 3866 3762 3669 3577 3492 3404 3395 3298 3193 3022 2990 3180 3306 3375 3419 3492 3574 3644 3735 3809 3858 3875
1992 2131 2076 2061 2316 2408 2628 3041 3118 3185 3076 3112 3401 3897 4220 4107 4260 4333 4473 4315 4406 4470 4844 5104 4530 4032 3708 3638 3787 4206 4346 4418 4529 4565 4590 4532 4445 4354 4305 4290 4236 4093 4012 3899 3808 3746 3816 3754 3704 3560 3475 3417 3296 3580 3770 3820 3819 3824 3811 3792 3840 3897 3936
1562 1780 2100 2140 2218 2464 2352 2702 2733 2785 2969 2953 3260 3680 4031 4079 4292 4285 4219 4310 4423 4445 4684 5049 4634 4177 3910 3736 3836 4201 4400 4487 4658 4814 4909 4892 4792 4703 4623 4599 4545 4468 4378 4279 4141 4167 4125 4096 3956 3918 3879 3794 3704 3669 3941 4146 4210 4187 4148 4132 4111 4092 4070
1438 1752 1931 2126 2109 2155 2229 2416 2445 2433 2479 2780 2808 3233 3754 3997 3980 4160 4204 4355 4562 4406 4635 5298 4668 4258 3986 3865 3930 4227 4457 4557 4787 5020 5160 5170 5077 4991 4914 4871 4837 4777 4716 4619 4554 4476 4430 4395 4352 4298 4331 4317 4264 4222 4151 4076 4224 4351 4380 4396 4428 4438 4430
1256 1565 1803 1855 2039 2326 2117 2186 2272 2267 2207 2128 2186 2635 3243 3764 3960 3969 4064 4352 4622 4591 4794 5453 5006 4488 4124 4057 4089 4349 4580 4667 4931 5190 5321 5376 5304 5234 5158 5083 5064 5042 5001 4946 4899 4851 4802 4715 4648 4589 4599 4576 4515 4442 4360 4276 4300 4367 4423 4439 4453 4440 4413
1154 1522 1725 1800 1944 2015 1953 2148 2163 2126 2135 2072 1919 1901 2105 3061 3732 3899 3992 4222 4596 4751 4720 4975 5319 4937 4537 4375 4285 4559 4776 4777 5685 5455 5372 5505 5501 5449 5372 5282 5259 5230 5188 5176 5130 5077 5021 4942 4868 4786 4704 4672 4634 4589 4527 4449 4345 4286 4278 4208 4139 4101 3984
952 1355 1570 1744 1832 1941 1916 2099 2171 2034 1993 1872 1763 1911 1960 1968 2624 3572 3713 3890 4245 4782 4846 4850 5127 5253 4939 4720 4572 4650 4960 4935 5490 5307 5323 5460 5517 5547 5530 5530 5470 5366 5326 5261 5233 5172 5100 5030 4960 4909 4864 4825 4786 4724 4669 4628 4548 4411 4266 4184 4164 4111 3988
546 789 1195 1517 1726 1871 1954 2062 2112 2002 1916 1909 1803 1795 1868 1912 1928 2463 3331 3534 4265 4774 4810 4801 4907 5133 5071 4979 4866 4781 5038 5167 5291 5210 5237 5289 5333 5389 5402 5459 5566 5570 5489 5461 5316 5271 5177 5049 5029 5030 5000 4964 4912 4884 4908 4800 4593 4416 4322 4267 4130 3900 3726
384 673 874 1270 1461 1700 1879 1928 1982 2083 2004 1782 1623 1590 1783 1742 1698 1906 2602 3164 4095 4590 4760 4652 4699 4847 5002 4902 4943 4939 4949 5140 5250 5214 5151 5113 5101 5071 5113 5160 5306 5476 5456 5394 5370 5320 5240 5126 5082 4999 5031 5100 5072 4844 4433 4191 4248 4366 4330 4148 3902 3743 3765
307 321 793 1081 1314 1556 1828 1948 2028 2036 1995 1792 1703 1635 1607 1632 1758 2047 2223 2796 3670 4342 4701 4584 4560 4664 4856 4797 4727 4768 4794 5033 5172 5202 5212 5172 5102 5061 5047 5014 5049 5036 5193 5175 5108 5026 5065 5083 5018 4875 4694 4598 4563 4536 4373 4092 4012 4012 3887 3881 3851 3787 3687
Wind_Speed
6 3 4 5 7 10 15 18 18 17 17 16 14 14 13 11 10 9 8 7 6 6 5 5 6 7 4 4 3 4 4 4 4 4 4 4 3 1 1 2 3 3 3 4 5 6 6 6 7 8 8 9 10 10 11 11 11 12 13 14 14 14 15
3 1 3 3 4 8 15 19 19 17 15 14 13 14 12 13 12 9 7 7 6 6 6 5 6 6 5 5 6 6 5 5 5 5 5 5 5 4 1 2 3 3 4 4 4 4 5 6 7 8 9 10 10 11 11 11 11 11 11 13 14 14 15
6 3 3 5 7 9 15 15 16 17 15 14 15 13 11 12 12 12 9 7 5 5 6 6 6 6 7 7 7 6 7 7 7 5 4 3 2 1 2 2 2 3 3 3 4 5 6 7 7 9 10 10 11 11 11 11 11 11 10 11 13 14 15
14 11 8 10 11 10 11 13 15 15 14 15 17 16 12 11 10 11 10 9 7 5 5 6 7 8 8 7 7 8 7 7 7 6 5 5 4 3 2 2 2 2 4 3 4 6 7 8 9 9 11 11 12 12 11 12 12 12 11 11 11 13 14
16 14 9 7 7 7 8 10 13 16 16 15 16 16 13 11 10 9 10 9 8 6 5 6 8 8 9 8 9 9 8 7 8 8 7 6 5 4 3 1 1 0 2 3 4 5 7 8 9 10 10 11 12 12 12 11 11 12 12 12 11 11 12
14 11 8 6 4 7 11 14 16 19 18 15 14 14 11 11 9 10 10 10 8 6 6 7 6 7 7 7 7 7 8 8 8 7 6 6 4 4 3 2 1 1 0 2 3 5 7 8 9 10 11 11 12 12 12 12 11 11 12 13 12 12 12
10 6 7 7 5 7 11 14 16 17 16 12 12 11 10 10 11 10 11 10 9 9 7 6 5 5 5 7 5 4 3 4 5 4 5 5 5 5 4 4 3 2 2 1 2 4 6 7 9 10 11 12 13 13 13 12 11 11 11 12 12 12 12
7 5 10 8 5 6 9 13 15 15 13 14 11 8 8 8 7 8 9 9 9 8 6 5 3 3 4 5 4 2 3 3 5 5 6 5 5 5 4 4 3 2 1 1 3 4 6 8 9 10 11 12 12 13 13 13 12 11 11 11 11 12 13
4 5 8 7 4 4 8 13 14 13 13 12 9 7 8 7 6 6 7 8 8 7 6 5 4 4 6 6 6 4 5 6 6 6 5 3 4 4 3 3 3 2 0 2 3 4 6 7 9 10 11 12 12 12 12 13 13 13 12 11 11 11 11
4 7 7 5 5 6 9 12 13 13 11 10 7 5 6 5 5 3 5 7 8 6 6 5 5 5 6 6 5 5 5 5 5 4 3 2 3 3 3 3 3 2 1 2 3 5 6 7 7 8 10 11 12 12 12 13 13 13 12 12 11 10 10
6 8 9 10 10 11 13 14 13 10 8 7 5 4 5 7 5 3 3 6 7 6 7 6 6 6 5 5 5 4 4 3 3 2 1 0 2 2 2 2 2 1 2 3 4 5 5 5 6 8 9 11 12 13 13 13 13 13 12 11 10 9 9
6 8 10 12 13 15 14 12 10 9 7 4 3 2 4 6 6 3 1 4 7 8 8 7 7 6 6 5 5 4 3 3 2 1 1 0 1 1 1 1 0 1 2 4 5 5 5 6 7 8 10 11 12 13 13 13 13 13 13 12 11 9 7
6 9 11 11 13 13 12 12 9 9 7 3 2 0 2 4 4 3 1 2 5 7 8 7 7 6 5 5 4 5 3 3 2 3 3 2 2 2 2 0 2 3 4 4 5 6 6 7 7 8 9 11 12 12 13 13 13 12 12 11 11 11 9
8 7 8 9 11 11 9 8 10 12 9 6 3 3 3 2 1 3 3 2 2 4 5 6 6 6 5 5 4 4 3 2 3 4 4 4 3 1 1 1 2 3 3 4 5 6 7 7 7 7 9 10 11 11 11 11 11 12 12 11 11 11 11
11 8 6 6 8 8 8 10 12 12 10 7 6 5 4 2 1 1 2 3 2 2 2 3 4 3 3 3 2 2 3 4 5 5 5 4 3 2 2 2 2 3 4 4 4 4 6 6 7 7 8 9 9 10 10 10 10 10 11 11 12 11 11
12 9 7 5 6 5 6 9 11 10 10 11 9 7 6 3 1 1 3 4 4 5 4 2 2 1 1 2 2 4 5 5 6 5 5 4 3 2 2 3 3 4 4 4 4 5 5 5 6 7 9 9 8 8 8 8 8 11 16 15 12 11 9
12 9 8 4 4 7 9 9 10 11 12 11 9 7 5 3 2 0 2 2 4 5 4 4 5 5 5 5 2 2 3 4 4 5 4 4 5 5 4 4 6 5 5 5 5 5 5 5 6 7 7 8 8 8 7 7 7 14 15 16 18 12 8
11 9 7 5 3 7 9 10 12 12 11 9 7 6 7 7 5 2 1 1 2 2 1 4 5 6 6 4 2 2 2 2 3 3 4 6 6 7 8 8 8 7 7 6 5 5 5 4 5 5 7 6 7 7 7 6 10 13 14 15 16 14 9
9 7 6 6 6 6 7 8 9 9 8 8 6 6 5 5 5 3 2 2 3 4 2 1 3 3 3 2 3 4 4 4 5 5 5 6 8 9 10 10 10 9 9 7 6 8 5 3 4 4 6 6 6 7 7 6 10 11 12 12 14 15 12
13 11 12 9 9 7 6 12 16 16 14 12 10 7 8 8 5 6 7 8 8 6 4 2 1 1 1 1 3 3 4 5 6 6 7 7 8 9 10 10 10 10 10 9 9 7 4 3 3 2 4 5 5 5 6 6 7 9 10 10 12 13 12
26 23 22 21 21 20 19 20 22 23 22 20 19 20 19 16 14 15 15 13 10 9 7 5 4 4 4 3 3 4 5 6 7 7 7 8 9 9 10 10 10 9 9 9 8 7 5 4 2 1 2 4 4 4 5 4 8 9 11 11 12 13 12
30 28 27 24 24 23 23 24 24 25 26 28 27 25 22 19 20 19 17 16 13 11 9 8 6 5 5 4 4 6 7 9 9 10 10 10 9 9 9 10 10 10 9 9 9 9 8 6 4 2 1 1 3 3 3 2 7 10 12 13 13 14 8
34 32 30 29 28 24 22 24 26 26 27 29 28 26 24 23 23 21 20 18 15 13 11 9 6 5 6 6 6 8 9 11 11 12 13 13 12 10 9 9 10 10 12 9 7 7 6 5 4 5 5 3 2 1 1 2 5 10 12 14 15 14 10
38 37 35 31 28 27 26 25 26 26 27 28 30 30 29 26 22 21 19 17 16 15 13 10 6 7 7 7 8 9 11 12 14 14 14 14 14 13 11 10 10 12 14 11 8 7 6 8 9 9 8 6 3 2 3 3 6 11 13 16 19 19 15
41 40 38 34 31 30 28 27 27 27 28 30 30 28 28 27 25 23 19 18 17 16 14 10 9 10 10 12 13 12 12 13 15 15 16 16 16 16 15 14 13 12 14 12 11 9 11 12 11 10 9 7 5 3 3 5 9 14 14 16 18 17 13
42 41 39 35 33 30 29 28 31 33 32 31 27 25 26 25 26 25 23 21 22 20 14 12 13 17 18 19 18 17 15 14 15 16 17 16 17 17 17 16 15 13 12 13 14 14 14 13 12 9 9 9 8 7 7 8 10 14 14 16 16 18 16
41 40 39 38 36 33 31 29 28 29 29 27 26 27 27 26 25 24 24 23 22 19 19 24 26 24 23 23 22 20 18 17 16 16 17 18 19 19 18 17 16 14 13 12 14 14 14 12 12 11 10 10 10 9 10 11 12 15 16 16 18 19 20
46 44 41 39 40 37 33 30 30 31 31 30 31 31 29 27 27 25 25 26 24 22 22 23 24 26 26 25 23 22 21 20 19 18 19 20 21 21 20 19 17 15 14 13 13 13 12 13 14 13 12 13 13 12 13 15 14 18 15 18 20 22 23
49 46 43 42 42 41 37 34 32 30 29 28 30 31 33 33 32 30 29 30 28 28 27 25 26 27 27 26 26 25 24 23 23 22 23 23 23 23 23 23 20 17 16 14 13 12 12 14 16 16 15 16 16 17 18 20 18 18 19 18 21 23 23
48 46 44 42 41 40 38 35 32 30 29 29 29 30 32 34 34 33 33 31 30 30 29 27 26 27 27 27 27 27 27 27 26 26 26 26 26 25 25 25 24 21 19 17 16 14 13 15 17 17 16 16 18 19 21 22 21 18 19 21 22 23 24
50 48 45 44 42 40 38 36 33 30 30 29 28 28 28 29 31 31 32 30 31 30 32 28 28 28 27 27 28 29 29 30 30 30 30 30 30 28 27 27 28 25 22 21 19 17 16 17 18 17 17 18 18 21 22 24 26 29 29 28 23 22 22
50 48 47 43 43 43 42 41 39 37 34 32 31 29 27 28 28 29 27 27 29 29 31 29 29 28 27 27 28 27 29 30 30 31 32 33 31 30 29 28 30 29 28 24 21 21 20 20 21 19 20 19 21 22 27 30 29 30 30 31 33 31 30
46 45 47 47 43 43 45 45 44 42 38 37 33 31 29 28 27 26 26 27 27 28 28 29 28 27 27 26 26 26 26 27 29 31 34 34 33 32 32 32 32 33 31 28 25 24 24 25 25 25 24 24 25 31 33 32 33 33 34 35 37 37 38
45 45 45 46 44 44 46 46 44 43 41 39 35 33 31 29 27 27 28 28 28 27 27 30 28 26 26 25 25 24 24 26 27 30 33 36 36 36 35 35 33 33 32 30 29 28 26 28 29 29 29 29 35 37 36 37 36 37 38 39 41 42 42
46 44 42 43 41 40 42 42 42 41 41 39 36 34 33 30 28 28 29 29 29 28 27 29 30 29 29 27 26 25 24 24 26 29 33 37 41 43 42 40 39 37 36 36 33 29 30 30 31 31 32 36 39 41 41 39 40 37 39 42 43 45 45
47 44 42 41 40 40 41 43 43 41 40 37 37 36 33 30 30 30 29 30 30 30 27 30 31 32 32 32 31 30 30 30 31 31 32 33 35 38 42 45 48 45 39 36 37 35 33 36 35 36 41 44 42 40 41 41 42 46 49 50 53 53 53
48 46 44 45 46 44 41 41 42 42 40 38 37 36 34 32 31 30 30 30 31 31 28 30 32 33 32 32 32 32 33 33 33 32 33 32 34 36 39 40 46 52 51 47 45 45 51 52 52 50 46 47 46 49 56 55 52 50 50 53 53 55 56
53 50 46 45 46 43 40 41 42 41 40 39 38 37 35 34 33 31 30 31 32 33 30 30 32 32 31 32 32 34 35 34 35 35 35 35 35 36 38 41 44 46 51 53 53 54 55 56 57 57 57 56 56 52 49 50 52 53 53 54 54 54 55
Wind_Direction
318 318 351 336 316 320 325 324 324 328 339 344 341 342 335 312 295 276 276 286 299 292 284 266 258 240 245 211 175 160 145 150 175 167 162 165 174 206 308 312 347 350 336 353 6 2 360 338 346 349 341 347 350 351 351 352 356 358 360 3 4 8 12
270 288 347 322 308 318 318 316 320 321 326 338 336 338 340 329 302 288 285 290 296 294 278 256 246 232 230 210 183 163 152 149 164 173 166 168 179 187 229 294 322 328 333 341 335 335 316 334 334 332 335 336 341 339 341 342 345 346 348 352 355 1 3
294 280 312 297 300 313 316 315 324 321 322 330 328 328 342 337 315 306 289 279 280 267 255 253 245 237 226 215 194 166 159 162 163 159 150 147 144 197 215 251 283 301 320 292 298 310 317 325 324 324 324 327 327 328 332 333 334 336 338 337 343 349 355
303 307 315 323 323 320 324 330 334 323 318 326 328 331 339 341 318 296 286 289 291 275 280 261 252 247 236 226 203 180 163 159 156 155 151 163 167 182 209 202 221 244 255 305 312 310 311 317 323 320 322 321 323 322 323 329 326 326 329 325 329 336 344
312 312 299 279 282 287 304 321 331 327 321 323 328 331 333 330 314 292 283 287 296 306 289 273 249 246 239 237 212 193 172 164 167 170 172 173 171 172 158 142 174 346 350 286 283 304 310 316 322 320 320 320 322 319 323 321 322 319 319 320 319 318 327
310 294 244 216 254 301 318 326 333 329 317 314 320 319 319 323 312 311 299 290 289 287 273 268 271 262 257 250 228 204 192 183 179 180 179 172 169 154 142 146 127 88 25 6 307 312 318 319 323 323 324 323 323 322 322 321 319 315 314 312 315 312 316
295 270 208 194 247 300 317 317 321 318 304 295 292 298 312 322 327 317 295 296 298 300 301 303 301 281 263 253 242 228 213 196 190 174 178 166 158 156 159 164 154 138 86 258 341 311 316 321 326 325 327 324 322 324 322 321 321 312 308 310 314 314 316
294 223 213 223 259 299 303 302 308 301 276 259 267 292 322 322 311 298 299 294 297 298 293 301 276 240 241 232 224 228 200 198 191 182 189 173 165 163 170 170 169 152 176 3 3 326 331 326 318 321 324 324 324 322 322 321 321 316 310 314 318 321 310
256 234 234 236 264 277 288 293 293 280 269 274 302 326 337 321 317 315 307 285 276 290 303 300 290 246 225 217 208 195 193 198 194 198 195 181 178 164 166 168 172 201 283 350 334 335 337 334 329 325 324 325 324 322 320 321 320 317 318 322 326 328 322
225 212 215 234 249 241 262 271 264 246 247 264 285 320 347 351 354 315 270 268 265 283 292 284 270 256 243 233 223 219 215 206 204 214 205 175 178 156 153 170 173 206 301 340 331 339 339 337 339 329 326 328 327 327 327 324 322 320 322 329 331 333 334
229 224 215 211 218 224 235 241 243 239 254 274 301 350 20 29 25 351 284 259 263 263 271 273 266 268 265 257 259 246 236 228 227 239 290 116 187 139 150 159 170 214 2 349 345 342 333 336 330 331 331 333 337 335 333 334 330 328 328 327 327 333 336
250 238 227 220 215 220 233 239 238 241 250 263 311 2 46 50 43 31 265 253 248 251 258 267 265 279 281 276 277 263 265 254 247 276 323 324 187 125 142 164 116 356 3 357 355 340 340 343 328 327 336 341 343 339 339 336 334 335 335 333 329 330 335
254 238 236 231 220 220 228 230 245 252 258 271 306 71 86 59 46 42 39 251 249 248 255 260 262 267 275 282 287 268 276 280 264 240 233 229 214 202 203 80 20 6 3 347 355 349 341 339 338 327 331 342 341 343 344 343 338 336 337 336 334 338 342
308 268 253 232 219 225 230 238 246 248 244 237 216 188 164 127 72 42 38 29 242 240 240 236 255 261 266 268 270 268 280 261 247 242 239 234 239 258 299 344 2 355 344 330 350 353 345 336 336 334 335 341 341 348 345 342 337 337 339 341 343 344 352
316 300 277 243 231 228 227 236 243 248 241 226 220 205 192 179 144 121 81 69 97 150 156 217 232 245 252 249 247 246 241 233 230 230 238 253 265 296 326 338 333 322 321 323 331 322 334 333 334 337 343 343 344 352 349 342 341 336 340 346 352 355 6
316 304 283 243 212 217 235 251 251 244 230 220 216 204 196 183 142 48 30 41 58 78 93 122 98 116 113 113 154 203 221 230 231 236 248 262 283 287 291 290 291 298 308 310 315 315 316 326 337 342 342 342 350 356 349 342 335 356 7 3 358 5 16
311 293 282 272 196 181 195 221 230 218 213 217 213 202 193 176 153 122 21 50 58 58 65 64 63 62 69 78 116 191 219 228 233 245 260 264 259 261 272 277 265 267 277 283 295 314 314 322 342 341 333 340 351 3 354 344 347 11 10 14 18 12 15
303 297 291 293 232 183 185 196 205 204 204 209 210 202 191 188 182 184 41 25 43 30 15 47 49 50 65 69 55 23 356 317 292 291 288 281 286 278 271 266 269 269 269 274 293 293 289 319 345 338 327 325 350 2 355 359 16 14 11 14 16 13 13
293 289 273 263 245 208 171 176 193 200 203 211 221 214 188 194 190 152 178 237 237 241 261 11 27 40 55 44 22 20 14 356 352 347 328 316 301 287 282 286 286 284 278 283 274 264 282 321 335 344 330 328 350 2 359 11 27 17 11 9 10 13 15
236 237 230 236 253 248 194 180 184 189 197 205 215 223 212 207 197 185 201 216 223 234 233 250 248 263 286 330 359 0 353 354 360 357 346 324 310 301 302 304 309 298 283 266 258 265 284 301 338 349 332 335 348 360 4 21 32 12 8 5 9 13 8
224 222 220 218 213 211 208 198 190 191 194 196 205 210 209 200 199 206 207 209 212 212 217 210 215 225 241 275 308 319 323 330 338 342 335 327 320 318 321 322 313 304 287 268 260 259 270 280 287 325 342 338 348 359 14 20 19 355 1 3 5 12 2
229 225 224 218 222 211 209 205 198 196 199 203 210 210 208 204 207 215 212 212 213 213 211 209 207 216 238 260 288 303 303 310 317 323 323 323 324 331 335 326 317 311 285 260 241 231 232 234 234 220 207 306 330 355 27 9 358 347 352 356 357 354 337
230 227 225 224 227 224 219 219 212 203 206 210 212 215 211 209 210 211 214 212 211 216 216 215 211 222 244 260 279 288 289 293 303 309 314 317 324 332 333 324 311 294 276 267 250 239 239 242 244 225 212 218 251 326 341 301 331 336 342 344 342 323 329
227 227 224 226 228 227 224 225 225 220 220 219 216 212 210 215 215 216 217 215 217 223 222 222 221 234 250 264 273 278 278 282 291 298 303 308 319 322 321 320 303 291 279 279 266 247 236 231 225 223 219 220 223 252 251 257 280 312 324 331 332 330 327
226 226 225 225 227 229 226 226 229 228 225 221 215 207 210 214 222 222 216 217 221 226 229 228 234 244 252 255 259 266 270 272 280 288 295 304 310 310 312 314 312 296 280 275 266 254 239 232 227 224 224 225 227 247 246 231 259 296 313 325 328 324 305
225 225 225 224 225 228 229 228 228 227 225 222 216 213 214 217 221 223 224 221 221 221 226 234 240 242 242 248 252 255 259 259 268 275 284 293 295 297 302 303 308 307 293 276 264 253 245 238 229 224 224 231 236 236 238 237 243 270 306 313 319 322 293
228 228 226 224 223 224 228 228 230 230 226 222 217 214 213 214 220 224 224 227 230 226 220 223 228 236 246 249 251 253 257 257 259 265 269 276 282 287 289 292 302 307 305 294 276 263 250 241 227 218 217 229 234 232 238 244 248 261 297 305 310 313 305
227 226 225 225 225 226 224 222 222 222 219 214 211 210 211 211 213 215 217 220 221 222 227 234 241 243 243 251 256 258 259 260 256 256 255 259 265 271 276 279 288 294 300 294 290 285 266 243 230 222 218 223 231 234 237 248 267 253 280 299 305 307 318
229 229 227 225 225 225 225 221 219 219 219 214 211 209 207 207 209 209 213 214 210 210 216 227 236 244 247 247 249 253 255 254 258 255 248 249 256 262 267 270 276 282 286 289 288 286 272 254 242 233 224 224 230 236 241 245 252 273 270 291 303 311 318
232 234 234 230 231 230 227 223 219 217 215 212 208 208 210 212 211 211 213 210 207 209 211 222 232 238 242 243 243 243 243 243 244 246 246 250 251 252 257 261 264 270 276 279 278 274 268 256 250 244 236 233 233 237 240 242 249 266 282 283 305 310 317
228 232 235 234 231 232 233 230 227 223 220 215 210 209 210 212 213 212 211 205 207 209 211 221 232 237 239 240 241 242 240 239 239 241 242 243 247 247 249 253 258 262 263 267 268 265 260 254 254 252 248 245 244 244 246 246 246 247 246 258 284 285 284
226 230 231 231 231 230 232 232 230 228 225 220 215 213 212 212 215 212 208 206 207 208 211 222 233 235 239 241 243 243 244 244 241 241 243 244 242 244 244 249 253 256 257 261 264 263 260 257 256 254 253 252 251 254 252 246 250 251 252 253 259 267 276
223 226 225 223 224 229 230 233 232 230 228 224 220 219 217 216 216 214 212 212 208 208 212 223 229 233 235 240 241 241 244 247 243 240 240 242 240 238 238 241 246 249 253 257 261 261 259 258 258 256 255 256 257 254 253 254 252 255 256 258 263 264 266
221 221 219 219 218 224 227 230 232 231 229 228 224 223 222 219 219 216 214 214 213 212 217 223 225 231 234 235 236 240 242 244 250 248 242 238 235 234 234 238 242 247 249 254 257 259 259 259 258 257 257 257 256 257 257 255 256 259 263 264 266 268 269
218 220 223 222 221 224 228 231 233 232 231 228 227 226 226 221 217 218 216 215 216 216 225 228 227 229 232 233 237 240 241 246 248 247 246 242 239 235 231 227 227 233 240 237 243 256 262 260 258 258 258 259 262 263 257 257 262 264 260 265 268 273 275
216 219 224 227 226 225 227 229 233 233 232 229 229 228 227 223 219 216 217 219 220 219 229 234 232 232 232 235 238 239 241 240 243 246 249 249 247 245 240 237 237 232 235 238 233 236 246 256 256 258 258 256 251 253 265 268 267 268 269 269 269 269 272
216 219 225 227 226 225 226 227 229 234 235 233 231 230 230 228 224 220 218 221 223 223 225 236 237 236 235 239 241 246 247 246 245 245 247 249 250 248 249 245 237 234 234 238 240 248 253 253 252 252 256 263 260 254 257 266 269 271 272 272 272 273 274
218 223 227 230 231 230 229 229 230 233 235 235 235 234 234 232 229 226 224 224 227 229 228 234 243 243 243 244 246 248 249 248 249 250 250 248 248 251 252 251 249 242 236 236 242 245 250 254 256 257 256 259 264 265 258 261 268 273 273 273 274 273 273